Hourly Weather Roundup
Issued by NWS Central Illinois

Home | Current Version | Previous Version | Text Only | Print | Product List | Glossary On
Versions: 1 2 3 4 5 6 7 8 9 10 11 12 13 14 15 16 17 18 19 20 21 22 23 24 25 26 27 28 29 30 31 32 33 34 35 36 37 38 39 40 41 42 43 44 45 46 47 48 49 50
000
NZUS43 KILX 290010
HWRILX

AREA WEATHER ROUNDUP
NATIONAL WEATHER SERVICE, LINCOLN IL
700 PM CDT THU JUL 28 2016


CITY           SKY/WX    TMP DP  RH WIND       PRES   REMARKS
BLOOMINGTON    CLOUDY    76  70  82 CALM      29.91R
6HR MIN TEMP:  72; 6HR MAX TEMP:  84; 6HR PCP:  0.08;

CHAMPAIGN      SUNNY     80  72  76 N8        29.90R HX  84
6HR MIN TEMP:  79; 6HR MAX TEMP:  84; 6HR PCP: TRACE;

DANVILLE       RAIN      77  74  89 S3        29.86R
6HR MIN TEMP:  77; 6HR MAX TEMP:  85;

DECATUR        SUNNY     82  68  62 NE6       29.89R HX  85
6HR MIN TEMP:  81; 6HR MAX TEMP:  86;

EFFINGHAM      CLOUDY    81  75  83 NW5       29.91R HX  86
FLORA          CLOUDY    80  76  86 CALM      29.89S HX  85
6HR MIN TEMP:  78; 6HR MAX TEMP:  88; 6HR PCP:  0.05;

GALESBURG      SUNNY     79  68  69 NW7       29.89F HX  81
JACKSONVILLE   SUNNY     81  71  72 NW3       29.88S HX  84
6HR MIN TEMP:  81; 6HR MAX TEMP:  86;

LACON          MOSUNNY   76  67  71 S5        29.87S
LAWRENCEVILLE  CLOUDY    77  71  82 E12       29.88S
6HR MIN TEMP:  75; 6HR MAX TEMP:  86; 6HR PCP:  0.02;

LITCHFIELD     NOT AVBL
$$


CITY           SKY/WX    TMP DP  RH WIND       PRES   REMARKS
LINCOLN        LGT RAIN  74  67  79 CALM      29.89R
6HR MIN TEMP:  74; 6HR MAX TEMP:  85; 6HR PCP:  0.61;

MACOMB         MOSUNNY   78  68  71 NW10      29.92S HX  81
MATTOON        CLOUDY    70  68  93 SW8       29.89R
6HR MIN TEMP:  68; 6HR MAX TEMP:  84; 6HR PCP:  0.68;

MT CARMEL AP   LGT RAIN  73  69  87 SE5       29.88F
6HR MIN TEMP:  72; 6HR MAX TEMP:  85;

OLNEY-NOBLE AP MOSUNNY   75  73  94 E3        29.89R
PARIS          CLOUDY    80  74  81 CALM      29.88F HX  85
6HR MIN TEMP:  79; 6HR MAX TEMP:  85;

PEORIA         CLOUDY    79  71  76 SE6       29.89R HX  82
6HR MIN TEMP:  79; 6HR MAX TEMP:  88; 6HR PCP: TRACE;

PONTIAC        CLOUDY    78  73  83 E3        29.90R HX  80
RANTOUL        NOT AVBL
ROBINSON       MOSUNNY   82  76  83 SW5       29.88F HX  88
6HR MIN TEMP:  81; 6HR MAX TEMP:  85;

SPRINGFIELD    SUNNY     84  72  67 NW6       29.88S HX  89
6HR MIN TEMP:  71; 6HR MAX TEMP:  89; 6HR PCP:  0.42;

TAYLORVILLE    SUNNY     81  74  78 MISG      29.89R HX  86
$$

...REGIONAL REPORTS...


CITY           SKY/WX    TMP DP  RH WIND       PRES   REMARKS
CHICAGO O`HARE PTSUNNY   75  70  84 NE12      29.88R
KANKAKEE       SUNNY     76  67  71 E7        29.88R
MOLINE         MOSUNNY   83  66  56 NW12      29.88S HX  85
MOUNT STERLING MOSUNNY   81  69  67 N12       29.90S HX  84
MOUNT VERNON   MOSUNNY   81  70  69 MISG      29.88R HX  84
PITTSFIELD     CLOUDY    82  72  71 NW5       29.91R HX  87
QUINCY         MOSUNNY   81  70  69 N13       29.91R HX  84
ROCKFORD       MOSUNNY   80  68  66 E6        29.90S HX  83
$$


CITY           SKY/WX    TMP DP  RH WIND       PRES   REMARKS
BURLINGTON     SUNNY     78  67  68 NW7       29.90F HX  80
CEDAR RAPIDS   SUNNY     76  68  76 NW10      29.91F
DES MOINES     MOSUNNY   79  62  56 N10       29.95S HX  80
KIRKSVILLE     SUNNY     81  64  56 N13       29.94R HX  82
OTTUMWA        MOSUNNY   78  64  61 NW9       29.92S HX  80
ST LOUIS       PTSUNNY   87  70  56 N9        29.88S HX  92
$$


CITY           SKY/WX    TMP DP  RH WIND       PRES   REMARKS
TERRE HAUTE    CLOUDY    77  68  73 SE15      29.87F THUNDER
EVANSVILLE     CLOUDY    84  74  71 SW3       29.88S HX  91
INDIANAPOLIS   PTSUNNY   81  70  69 SW10      29.89R HX  84
LAFAYETTE      CLOUDY    83  70  64 CALM      29.87R HX  87
MADISON        CLOUDY    73  65  75 NE10      29.92S
MILWAUKEE      PTSUNNY   69  64  84 NE16      29.93S
$$






USA.gov is the U.S. government's official web portal to all federal, state and local government web resources and services.